TimeEDT,TemperatureF,Dew PointF,Humidity,Sea Level PressureIn,VisibilityMPH,Wind Direction,Wind SpeedMPH,Gust SpeedMPH,PrecipitationIn,Events,Conditions,WindDirDegrees,DateUTC
12:53 AM,46.9,42.1,83,29.72,10.0,SE,4.6,-,N/A,,Overcast,130,2013-03-19 04:53:00
1:53 AM,50.0,45.0,83,29.73,9.0,SSW,4.6,-,N/A,,Overcast,200,2013-03-19 05:53:00
2:19 AM,48.2,46.4,93,29.72,5.0,SSW,5.8,-,0.00,Rain,Light Rain,200,2013-03-19 06:19:00
2:53 AM,48.9,46.9,93,29.73,6.0,SSW,5.8,-,0.00,,Overcast,210,2013-03-19 06:53:00
3:53 AM,45.0,42.1,90,29.75,10.0,WNW,9.2,-,0.03,Rain,Light Rain,290,2013-03-19 07:53:00
4:03 AM,44.6,41.0,87,29.74,10.0,West,11.5,16.1,0.00,,Overcast,280,2013-03-19 08:03:00
4:31 AM,42.8,37.4,81,29.77,10.0,West,8.1,19.6,0.00,,Overcast,280,2013-03-19 08:31:00
4:44 AM,42.8,37.4,81,29.78,6.0,West,12.7,20.7,0.00,,Overcast,270,2013-03-19 08:44:00
4:53 AM,42.1,37.9,85,29.80,5.0,West,9.2,19.6,0.00,,Overcast,270,2013-03-19 08:53:00
5:53 AM,41.0,35.1,79,29.84,10.0,West,6.9,-,0.00,,Overcast,270,2013-03-19 09:53:00
6:46 AM,39.2,30.2,70,29.85,10.0,Variable,6.9,-,N/A,,Mostly Cloudy,0,2013-03-19 10:46:00
6:53 AM,39.0,30.0,70,29.88,10.0,West,8.1,-,N/A,,Scattered Clouds,260,2013-03-19 10:53:00
7:53 AM,39.9,28.0,63,29.88,10.0,SSW,8.1,-,N/A,,Overcast,210,2013-03-19 11:53:00
8:53 AM,39.9,28.0,63,29.86,10.0,SW,13.8,19.6,N/A,,Overcast,230,2013-03-19 12:53:00
9:53 AM,41.0,28.9,62,29.84,10.0,SW,13.8,21.9,N/A,,Overcast,220,2013-03-19 13:53:00
10:53 AM,42.1,28.0,58,29.80,10.0,SSW,13.8,27.6,N/A,,Overcast,210,2013-03-19 14:53:00
11:53 AM,45.0,27.0,49,29.80,10.0,SW,15.0,28.8,N/A,,Overcast,230,2013-03-19 15:53:00
12:53 PM,46.9,24.1,41,29.80,10.0,WSW,17.3,35.7,N/A,,Mostly Cloudy,250,2013-03-19 16:53:00
1:53 PM,46.0,21.9,39,29.80,10.0,SW,12.7,21.9,N/A,,Scattered Clouds,230,2013-03-19 17:53:00
2:53 PM,48.0,17.1,29,29.79,10.0,West,10.4,31.1,N/A,,Partly Cloudy,260,2013-03-19 18:53:00
3:53 PM,48.0,10.0,22,29.80,10.0,West,15.0,40.3,N/A,,Scattered Clouds,270,2013-03-19 19:53:00
4:53 PM,46.9,12.0,24,29.83,10.0,West,19.6,35.7,N/A,,Mostly Cloudy,260,2013-03-19 20:53:00
5:53 PM,45.0,10.0,24,29.85,10.0,WSW,16.1,29.9,N/A,,Scattered Clouds,250,2013-03-19 21:53:00
6:53 PM,43.0,10.9,27,29.90,10.0,West,19.6,34.5,N/A,,Scattered Clouds,270,2013-03-19 22:53:00
7:53 PM,41.0,12.9,32,29.92,10.0,West,9.2,18.4,N/A,,Scattered Clouds,270,2013-03-19 23:53:00
8:53 PM,39.0,14.0,36,29.96,10.0,WNW,9.2,19.6,N/A,,Clear,290,2013-03-20 00:53:00
9:53 PM,37.9,14.0,38,29.99,10.0,West,9.2,19.6,N/A,,Clear,270,2013-03-20 01:53:00
10:53 PM,37.0,12.9,37,30.00,10.0,West,11.5,19.6,N/A,,Clear,280,2013-03-20 02:53:00
11:53 PM,36.0,12.9,39,30.00,10.0,Variable,6.9,-,N/A,,Clear,0,2013-03-20 03:53:00